Location: *
(2.7500°S, 66.6833°W)
Time: 03:28:24
(UTC+00:00)

CZ-4B R/B - Pass Details

Date: 24 May 2024
Orbit: 702 x 799 km, 98.9° (Epoch: 23 June)

Event Time Altitude Azimuth Distance (km) Brightness Sun altitude
Exits shadow 23:26:01 19° 145° (SE) 1,633 4.7 -15.5°
Maximum altitude 23:29:09 48° 77° (ENE) 909 3.5 -16.3°
Drops below altitude 10° 23:33:42 10° 3° (N) 2,166 6.1 -17.3°
Sets 23:36:01 0° 358° (N) 3,089 7.0 -17.9°
